Weather History for Darwin Airport, Northern Territory

Change the Weather History Date:

Friday, July 26, 2013

  Actual Average Record
Temperature  
Mean Temperature 74 °F -  
Max Temperature 86 °F 88 °F - ()
Min Temperature 63 °F 69 °F - ()
Cooling Degree Days 10    
Growing Degree Days 24 (Base 50)    
Moisture  
Dew Point 42 °F    
Average Humidity 33    
Maximum Humidity 78    
Minimum Humidity 11    
Precipitation  
Precipitation 0.00 in 0.01 in - ()
Sea Level Pressure  
Sea Level Pressure 29.95 in    
Wind  
Wind Speed 9 mph ()    
Max Wind Speed 16 mph    
Max Gust Speed -    
Visibility 16.8 miles    
Events      
T = Trace of Precipitation, MM = Missing Value Source: Averaged Metar Reports

Daily Weather History Graph

Daily Weather History Graph

Search for Another Location

Airport:

Trip Planner

Search our weather history database for the weather conditions in past years. The results will help you decide how hot, cold, wet, or windy it might be!

Date:

Astronomy

Jul. 26, 2013 Rise Set
Actual Time 7:07 AM CST 6:38 PM CST
Civil Twilight 6:44 AM CST 7:01 PM CST
Nautical Twilight 6:18 AM CST 7:27 PM CST
Astronomical Twilight 5:53 AM CST 7:52 PM CST
Moon 10:06 PM CST (7/26) 9:39 AM CST (7/26)
Length of Visible Light 12h 16m
Length of Day
11h 31m
Waning Gibbous, 85% of the Moon is Illuminated
Jul 26
Waning Gibbous
Jul 30
Last Quarter
Aug 7
New
Aug 14
First Quarter
Aug 21
Full

Hourly Weather History & Observations

Time (CST) Temp. Dew Point Humidity Pressure Visibility Wind Dir Wind Speed Gust Speed Precip Events Conditions
12:00 AM 69.8 °F 30.2 °F 23% 30.01 in - SSE 9.2 mph - N/A   Clear
12:30 AM 69 °F 32 °F 15% 29.99 in - SSE 11.5 mph - -  
12:30 AM 69.8 °F 32.0 °F 25% 29.98 in - SSE 11.5 mph - N/A   Clear
1:00 AM 69.8 °F 30.2 °F 23% 29.98 in - SSE 10.4 mph - N/A   Clear
1:30 AM 68.0 °F 32.0 °F 26% 29.98 in - SSE 10.4 mph - N/A   Clear
2:00 AM 68.0 °F 26.6 °F 21% 29.98 in - SSE 9.2 mph - N/A   Clear
2:30 AM 66.2 °F 26.6 °F 23% 29.98 in - SSE 10.4 mph - N/A   Clear
3:00 AM 66.2 °F 26.6 °F 23% 29.98 in - SSE 11.5 mph - N/A   Clear
3:30 AM 64.4 °F 23.0 °F 21% 29.98 in - SE 15.0 mph - N/A   Clear
4:00 AM 64.4 °F 24.8 °F 22% 29.98 in - SE 12.7 mph - N/A   Clear
4:30 AM 64.4 °F 24.8 °F 22% 29.98 in - SE 11.5 mph - N/A   Clear
5:00 AM 64.4 °F 26.6 °F 24% 29.98 in - SE 10.4 mph - N/A   Clear
5:30 AM 64.4 °F 30.2 °F 28% 29.98 in - ESE 10.4 mph - N/A   Clear
6:00 AM 67 °F 35 °F 19% 29.98 in 19 mi East 9.2 mph - -   Partly Cloudy
6:00 AM 66.2 °F 33.8 °F 30% 29.98 in - East 9.2 mph - N/A   Clear
6:30 AM 66 °F 36 °F 22% 29.98 in - ESE 10.4 mph - -  
6:30 AM 66.2 °F 35.6 °F 32% 29.98 in - ESE 10.4 mph - N/A   Clear
7:00 AM 66.2 °F 35.6 °F 32% 29.98 in - ESE 10.4 mph - N/A   Clear
7:30 AM 64.4 °F 33.8 °F 32% 29.98 in - SE 8.1 mph - N/A   Clear
8:00 AM 64.4 °F 32.0 °F 30% 29.98 in - SSE 10.4 mph - N/A   Clear
8:30 AM 66.2 °F 35.6 °F 32% 30.01 in - SSE 10.4 mph - N/A   Clear
9:00 AM 68 °F 36 °F 19% 30.00 in 12 mi SE 11.5 mph - -   Smoke
9:00 AM 68.0 °F 35.6 °F 30% 30.01 in - SE 11.5 mph - N/A   Clear
9:30 AM 72 °F 34 °F 15% 30.00 in - SE 10.4 mph - -  
9:30 AM 71.6 °F 33.8 °F 25% 30.01 in - SE 10.4 mph - N/A   Clear
10:00 AM 75.2 °F 35.6 °F 24% 30.01 in - SE 12.7 mph - N/A   Clear
10:30 AM 77.0 °F 33.8 °F 21% 29.98 in - ESE 12.7 mph - N/A   Clear
11:00 AM 78.8 °F 35.6 °F 21% 29.98 in - ESE 16.1 mph - N/A   Clear
11:30 AM 80.6 °F 37.4 °F 21% 29.98 in - ESE 12.7 mph - N/A   Clear
12:00 PM 82 °F 36 °F 11% 29.97 in 19 mi East 12.7 mph - -   Partly Cloudy
12:00 PM 82.4 °F 35.6 °F 19% 29.95 in - East 12.7 mph - N/A   Clear
12:30 PM 83 °F 37 °F 11% 29.96 in - East 11.5 mph - -  
12:30 PM 82.4 °F 37.4 °F 20% 29.95 in - East 11.5 mph - N/A   Clear
1:00 PM 84.2 °F 39.2 °F 20% 29.95 in - East 9.2 mph - N/A   Clear
1:30 PM 84.2 °F 39.2 °F 20% 29.92 in - ENE 10.4 mph - N/A   Clear
2:00 PM 86.0 °F 41.0 °F 20% 29.89 in - NE 6.9 mph - N/A   Clear
2:30 PM 85 °F 42 °F 13% 29.89 in 19 mi WNW 8.1 mph - -  
2:30 PM 86.0 °F 42.8 °F 22% 29.89 in - ENE 6.9 mph - N/A   Clear
3:00 PM 86.0 °F 41.0 °F 20% 29.89 in - WNW 8.1 mph - N/A   Clear
3:30 PM 84 °F 45 °F 16% 29.89 in - WNW 12.7 mph - -  
3:30 PM 84.2 °F 44.6 °F 25% 29.89 in - WNW 12.7 mph - N/A   Clear
4:00 PM 82.4 °F 51.8 °F 35% 29.89 in - NNW 10.4 mph - N/A   Clear
4:30 PM 84.2 °F 50.0 °F 30% 29.86 in - NW 8.1 mph - N/A   Clear
5:00 PM 82.4 °F 50.0 °F 32% 29.86 in - NNW 8.1 mph - N/A   Clear
5:30 PM 82.4 °F 46.4 °F 28% 29.89 in - NNW 8.1 mph - N/A   Clear
6:00 PM 80 °F 51 °F 25% 29.90 in 16 mi North 9.2 mph - -   Smoke
6:00 PM 80.6 °F 50.0 °F 34% 29.89 in - North 9.2 mph - N/A   Clear
6:30 PM 78 °F 57 °F 39% 29.90 in - North 8.1 mph - -  
6:30 PM 77.0 °F 57.2 °F 50% 29.89 in - North 8.1 mph - N/A   Clear
7:00 PM 75.2 °F 60.8 °F 61% 29.92 in - North 6.9 mph - N/A   Clear
7:30 PM 73.4 °F 60.8 °F 65% 29.92 in - North 5.8 mph - N/A   Clear
8:00 PM 71.6 °F 62.6 °F 73% 29.92 in - North 6.9 mph - N/A   Clear
8:30 PM 75.2 °F 60.8 °F 61% 29.92 in - North 4.6 mph - N/A   Clear
9:00 PM 73 °F 61 °F 56% 29.94 in 16 mi SSW 4.6 mph - -   Smoke
9:00 PM 73.4 °F 60.8 °F 65% 29.95 in - SSW 4.6 mph - N/A   Clear
9:30 PM 71 °F 61 °F 62% 29.95 in - WSW 4.6 mph - -  
9:30 PM 71.6 °F 60.8 °F 69% 29.95 in - WSW 4.6 mph - N/A   Clear
10:00 PM 73.4 °F 60.8 °F 65% 29.95 in - SW 6.9 mph - N/A   Clear
10:30 PM 71.6 °F 62.6 °F 73% 29.95 in - SSW 6.9 mph - N/A   Clear
11:00 PM 68.0 °F 60.8 °F 78% 29.95 in - SW 5.8 mph - N/A   Clear
11:30 PM 68.0 °F 60.8 °F 78% 29.95 in - West 3.5 mph - N/A   Clear